| time (UTC) | temp F | wind direction | speed knots | gust knots | rain 1hr in | rain 24hr in | rain mn in | humidity % | barometer mb |
| 20260510202327 | 53 | 355 | 1.7 | 3.5 | 0.00 | 0.01 | 0.01 | 52 | 1018.2 |
| 20260510201815 | 53 | 350 | 1.7 | 5.2 | 0.00 | 0.01 | 0.01 | 53 | 1018.2 |
| 20260510201314 | 53 | 36 | 0.9 | 2.6 | 0.00 | 0.01 | 0.01 | 55 | 1018.3 |
| 20260510200823 | 53 | 50 | 0.9 | 3.5 | 0.00 | 0.01 | 0.01 | 58 | 1018.3 |
| 20260510200325 | 53 | 334 | 0.9 | 4.3 | 0.00 | 0.01 | 0.01 | 57 | 1018.2 |
| 20260510195828 | 53 | 329 | 0.9 | 4.3 | 0.00 | 0.01 | 0.01 | 53 | 1018.2 |
| 20260510195310 | 53 | 323 | 1.7 | 4.3 | 0.00 | 0.01 | 0.01 | 55 | 1018.3 |
| 20260510194819 | 53 | 311 | 1.7 | 3.5 | 0.00 | 0.01 | 0.01 | 59 | 1018.3 |
| 20260510194320 | 53 | 10 | 0.9 | 3.5 | 0.00 | 0.01 | 0.01 | 55 | 1018.3 |
| 20260510193822 | 53 | 336 | 1.7 | 3.5 | 0.00 | 0.01 | 0.01 | 53 | 1018.2 |
| 20260510193331 | 53 | 17 | 1.7 | 3.5 | 0.00 | 0.01 | 0.01 | 56 | 1018.2 |
| 20260510192813 | 53 | 26 | 1.7 | 3.5 | 0.00 | 0.01 | 0.01 | 56 | 1018.2 |
| 20260510192343 | 53 | 325 | 0.9 | 5.2 | 0.00 | 0.01 | 0.01 | 58 | 1018.3 |
| 20260510191824 | 53 | 355 | 2.6 | 5.2 | 0.00 | 0.01 | 0.01 | 56 | 1018.3 |
| 20260510191331 | 53 | 320 | 0.9 | 2.6 | 0.00 | 0.01 | 0.01 | 57 | 1018.4 |
| 20260510190810 | 53 | 304 | 1.7 | 3.5 | 0.00 | 0.01 | 0.01 | 57 | 1018.4 |
| 20260510190331 | 52 | 34 | 0.9 | 4.3 | 0.00 | 0.01 | 0.01 | 58 | 1018.3 |
| 20260510185846 | 52 | 347 | 1.7 | 5.2 | 0.00 | 0.01 | 0.01 | 60 | 1018.2 |
| 20260510185335 | 52 | 61 | 2.6 | 5.2 | 0.00 | 0.01 | 0.01 | 59 | 1018.1 |
| 20260510184814 | 52 | 350 | 1.7 | 4.3 | 0.00 | 0.01 | 0.01 | 57 | 1018.0 |
| 20260510184316 | 52 | 76 | 1.7 | 5.2 | 0.00 | 0.01 | 0.01 | 60 | 1018.0 |
| 20260510183823 | 52 | 33 | 1.7 | 5.2 | 0.00 | 0.01 | 0.01 | 62 | 1018.0 |
| 20260510183325 | 52 | 335 | 0.9 | 4.3 | 0.00 | 0.01 | 0.01 | 58 | 1018.0 |
| 20260510182824 | 52 | 349 | 1.7 | 4.3 | 0.00 | 0.01 | 0.01 | 61 | 1017.9 |
| 20260510182329 | 52 | 360 | 1.7 | 4.3 | 0.00 | 0.01 | 0.01 | 63 | 1017.8 |
| 20260510181828 | 52 | 32 | 2.6 | 5.2 | 0.00 | 0.01 | 0.01 | 61 | 1017.6 |
| 20260510181310 | 52 | 49 | 2.6 | 6.1 | 0.00 | 0.01 | 0.01 | 62 | 1017.7 |
| 20260510180819 | 52 | 13 | 2.6 | 6.1 | 0.00 | 0.01 | 0.01 | 60 | 1017.6 |
| 20260510180312 | 52 | 65 | 2.6 | 7.0 | 0.00 | 0.01 | 0.01 | 61 | 1017.6 |
| 20260510175813 | 52 | 89 | 1.7 | 7.8 | 0.00 | 0.01 | 0.01 | 64 | 1017.6 |
| 20260510175319 | 51 | 100 | 1.7 | 7.8 | 0.00 | 0.01 | 0.01 | 61 | 1017.5 |
| 20260510174821 | 51 | 355 | 2.6 | 7.0 | 0.00 | 0.01 | 0.01 | 64 | 1017.5 |
| 20260510174323 | 51 | 341 | 1.7 | 7.0 | 0.00 | 0.01 | 0.01 | 66 | 1017.6 |
| 20260510173831 | 51 | 48 | 2.6 | 7.0 | 0.00 | 0.01 | 0.01 | 63 | 1017.5 |
| 20260510173333 | 51 | 73 | 1.7 | 7.0 | 0.00 | 0.01 | 0.01 | 64 | 1017.6 |
| 20260510172821 | 51 | 49 | 1.7 | 8.7 | 0.00 | 0.01 | 0.01 | 63 | 1017.7 |
| 20260510172342 | 51 | 65 | 2.6 | 7.0 | 0.00 | 0.01 | 0.01 | 64 | 1017.8 |
| 20260510171830 | 51 | 18 | 1.7 | 5.2 | 0.00 | 0.01 | 0.01 | 65 | 1017.9 |
| 20260510171312 | 51 | 337 | 1.7 | 5.2 | 0.00 | 0.01 | 0.01 | 65 | 1017.8 |
| 20260510170815 | 51 | 338 | 1.7 | 7.0 | 0.00 | 0.01 | 0.01 | 64 | 1017.7 |
| 20260510170317 | 51 | 40 | 2.6 | 6.1 | 0.00 | 0.01 | 0.01 | 62 | 1017.7 |
| 20260510165827 | 51 | 323 | 1.7 | 6.1 | 0.00 | 0.01 | 0.01 | 63 | 1017.7 |
| 20260510165324 | 51 | 11 | 1.7 | 6.1 | 0.00 | 0.01 | 0.01 | 64 | 1017.6 |
| 20260510164812 | 51 | 59 | 1.7 | 4.3 | 0.00 | 0.01 | 0.01 | 63 | 1017.6 |
| 20260510164310 | 51 | 5 | 0.9 | 7.0 | 0.00 | 0.01 | 0.01 | 63 | 1017.6 |
| 20260510163816 | 51 | 344 | 0.9 | 7.0 | 0.00 | 0.01 | 0.01 | 60 | 1017.6 |
| 20260510163318 | 51 | 333 | 1.7 | 4.3 | 0.00 | 0.01 | 0.01 | 64 | 1017.5 |
| 20260510162843 | 51 | 329 | 1.7 | 4.3 | 0.00 | 0.01 | 0.01 | 65 | 1017.5 |
| 20260510162324 | 51 | 355 | 2.6 | 5.2 | 0.00 | 0.01 | 0.01 | 64 | 1017.4 |
| 20260510161832 | 51 | 69 | 2.6 | 5.2 | 0.00 | 0.01 | 0.01 | 59 | 1017.4 |
| 20260510161312 | 51 | 115 | 0.9 | 5.2 | 0.00 | 0.01 | 0.01 | 65 | 1017.3 |
| 20260510160814 | 50 | 79 | 1.7 | 6.1 | 0.00 | 0.01 | 0.01 | 63 | 1017.2 |
| 20260510160321 | 50 | 63 | 3.5 | 6.1 | 0.00 | 0.01 | 0.01 | 61 | 1017.1 |
| 20260510155822 | 51 | 94 | 1.7 | 7.0 | 0.00 | 0.01 | 0.01 | 62 | 1017.2 |
| 20260510155330 | 51 | 40 | 1.7 | 7.8 | 0.00 | 0.01 | 0.01 | 64 | 1017.1 |
| 20260510154815 | 50 | 61 | 1.7 | 7.8 | 0.00 | 0.01 | 0.01 | 61 | 1017.1 |
| 20260510154317 | 50 | 53 | 2.6 | 7.0 | 0.00 | 0.01 | 0.01 | 60 | 1017.0 |
| 20260510153819 | 51 | 67 | 2.6 | 7.8 | 0.00 | 0.01 | 0.01 | 61 | 1017.0 |
| 20260510153328 | 51 | 84 | 3.5 | 7.8 | 0.00 | 0.01 | 0.01 | 60 | 1017.1 |
| 20260510152828 | 52 | 51 | 1.7 | 7.8 | 0.00 | 0.01 | 0.01 | 64 | 1017.0 |
| 20260510152336 | 51 | 309 | 0.9 | 7.8 | 0.00 | 0.01 | 0.01 | 62 | 1017.0 |
| 20260510151838 | 51 | 80 | 1.7 | 6.1 | 0.00 | 0.01 | 0.01 | 61 | 1017.0 |
| 20260510151317 | 51 | 360 | 0.9 | 6.1 | 0.00 | 0.01 | 0.01 | 62 | 1016.8 |
| 20260510150825 | 51 | 67 | 3.5 | 7.8 | 0.00 | 0.01 | 0.01 | 60 | 1016.7 |
| 20260510150325 | 51 | 345 | 1.7 | 7.8 | 0.00 | 0.01 | 0.01 | 63 | 1016.7 |
| 20260510145850 | 51 | 80 | 1.7 | 7.0 | 0.00 | 0.01 | 0.01 | 63 | 1016.6 |
| 20260510145332 | 51 | 348 | 3.5 | 7.0 | 0.00 | 0.01 | 0.01 | 62 | 1016.6 |
| 20260510144814 | 51 | 38 | 2.6 | 7.0 | 0.00 | 0.01 | 0.01 | 63 | 1016.6 |
| 20260510144322 | 51 | 60 | 0.9 | 6.1 | 0.00 | 0.01 | 0.01 | 63 | 1016.5 |
| 20260510143809 | 51 | 49 | 0.0 | 6.1 | 0.00 | 0.01 | 0.01 | 62 | 1016.5 |
| 20260510143312 | 51 | 57 | 2.6 | 7.0 | 0.00 | 0.01 | 0.01 | 63 | 1016.5 |
| 20260510142837 | 51 | 115 | 1.7 | 7.0 | 0.00 | 0.01 | 0.01 | 63 | 1016.5 |
| 20260510142318 | 51 | 5 | 2.6 | 5.2 | 0.00 | 0.01 | 0.01 | 64 | 1016.5 |
| 20260510141848 | 51 | 5 | 1.7 | 7.8 | 0.00 | 0.01 | 0.01 | 64 | 1016.6 |
| 20260510141329 | 51 | 28 | 4.3 | 7.8 | 0.00 | 0.01 | 0.01 | 62 | 1016.7 |
| 20260510140810 | 51 | 92 | 2.6 | 6.1 | 0.00 | 0.01 | 0.01 | 64 | 1016.6 |
| 20260510140319 | 50 | 110 | 1.7 | 6.1 | 0.00 | 0.01 | 0.01 | 66 | 1016.6 |
| 20260510135820 | 50 | 28 | 1.7 | 8.7 | 0.00 | 0.01 | 0.01 | 65 | 1016.5 |
| 20260510135321 | 50 | 71 | 3.5 | 8.7 | 0.00 | 0.01 | 0.01 | 65 | 1016.5 |
| 20260510134828 | 50 | 71 | 2.6 | 7.8 | 0.00 | 0.01 | 0.01 | 65 | 1016.5 |
| 20260510134312 | 50 | 51 | 3.5 | 5.2 | 0.00 | 0.01 | 0.01 | 64 | 1016.4 |
| 20260510133815 | 50 | 44 | 1.7 | 7.8 | 0.00 | 0.01 | 0.01 | 66 | 1016.4 |
| 20260510133325 | 50 | 63 | 2.6 | 7.8 | 0.00 | 0.01 | 0.01 | 66 | 1016.4 |
| 20260510132823 | 50 | 71 | 1.7 | 6.1 | 0.00 | 0.01 | 0.01 | 66 | 1016.2 |
| 20260510132325 | 50 | 82 | 4.3 | 6.1 | 0.00 | 0.01 | 0.01 | 64 | 1016.1 |
| 20260510131832 | 50 | 69 | 3.5 | 7.8 | 0.00 | 0.01 | 0.01 | 65 | 1016.1 |
| 20260510131312 | 50 | 67 | 2.6 | 7.8 | 0.00 | 0.01 | 0.01 | 65 | 1016.0 |
| 20260510130814 | 50 | 80 | 2.6 | 7.8 | 0.00 | 0.01 | 0.01 | 67 | 1015.9 |
| 20260510130312 | 50 | 55 | 1.7 | 5.2 | 0.00 | 0.01 | 0.01 | 67 | 1015.8 |
| 20260510125820 | 50 | 96 | 1.7 | 7.0 | 0.00 | 0.01 | 0.01 | 69 | 1015.5 |
| 20260510125323 | 50 | 44 | 0.9 | 7.0 | 0.00 | 0.01 | 0.01 | 68 | 1015.5 |
| 20260510124852 | 50 | 47 | 1.7 | 4.3 | 0.00 | 0.01 | 0.01 | 68 | 1015.5 |
| 20260510124332 | 50 | 36 | 0.9 | 5.2 | 0.00 | 0.01 | 0.01 | 70 | 1015.4 |
| 20260510123819 | 50 | 61 | 1.7 | 7.0 | 0.00 | 0.01 | 0.01 | 69 | 1015.4 |
| 20260510123320 | 50 | 76 | 1.7 | 4.3 | 0.00 | 0.01 | 0.01 | 69 | 1015.4 |
| 20260510122819 | 50 | 355 | 1.7 | 4.3 | 0.00 | 0.01 | 0.01 | 70 | 1015.3 |
| 20260510122345 | 49 | 59 | 1.7 | 4.3 | 0.00 | 0.01 | 0.01 | 70 | 1015.1 |
| 20260510121810 | 49 | 67 | 0.9 | 7.0 | 0.00 | 0.01 | 0.01 | 72 | 1015.3 |
| 20260510121311 | 49 | 80 | 2.6 | 7.0 | 0.00 | 0.01 | 0.01 | 71 | 1015.1 |
| 20260510120818 | 49 | 36 | 1.7 | 7.0 | 0.00 | 0.01 | 0.01 | 71 | 1015.1 |
| 20260510120336 | 50 | 65 | 2.6 | 7.0 | 0.00 | 0.01 | 0.01 | 72 | 1015.1 |
| 20260510115821 | 50 | 36 | 0.9 | 3.5 | 0.00 | 0.01 | 0.01 | 74 | 1014.8 |
| 20260510115319 | 49 | 76 | 1.7 | 4.3 | 0.00 | 0.01 | 0.01 | 74 | 1014.6 |
| 20260510114818 | 49 | 71 | 1.7 | 4.3 | 0.00 | 0.01 | 0.01 | 74 | 1014.4 |
| 20260510114310 | 49 | 49 | 1.7 | 4.3 | 0.00 | 0.01 | 0.01 | 75 | 1014.4 |
| 20260510113811 | 49 | 334 | 0.9 | 7.8 | 0.00 | 0.01 | 0.01 | 75 | 1014.3 |
| 20260510113312 | 49 | 19 | 2.6 | 7.8 | 0.00 | 0.01 | 0.01 | 74 | 1014.3 |
| 20260510112818 | 49 | 63 | 1.7 | 4.3 | 0.00 | 0.01 | 0.01 | 75 | 1014.1 |
| 20260510112319 | 49 | 47 | 0.9 | 4.3 | 0.00 | 0.01 | 0.01 | 76 | 1013.9 |
| 20260510111843 | 48 | 306 | 0.9 | 9.6 | 0.00 | 0.01 | 0.01 | 76 | 1013.7 |
| 20260510111324 | 48 | 53 | 2.6 | 9.6 | 0.00 | 0.01 | 0.01 | 76 | 1013.7 |
| 20260510110810 | 48 | 57 | 0.9 | 7.0 | 0.00 | 0.01 | 0.01 | 76 | 1013.4 |
| 20260510110336 | 48 | 5 | 1.7 | 7.8 | 0.00 | 0.01 | 0.01 | 75 | 1013.5 |
| 20260510105816 | 48 | 40 | 1.7 | 7.8 | 0.00 | 0.01 | 0.01 | 76 | 1013.4 |
| 20260510105317 | 48 | 51 | 0.9 | 4.3 | 0.00 | 0.01 | 0.01 | 77 | 1013.4 |
| 20260510104843 | 48 | 75 | 1.7 | 5.2 | 0.00 | 0.01 | 0.01 | 77 | 1013.0 |
| 20260510104328 | 48 | 61 | 1.7 | 7.8 | 0.00 | 0.01 | 0.01 | 77 | 1012.8 |
| 20260510103809 | 48 | 40 | 0.9 | 8.7 | 0.00 | 0.01 | 0.01 | 76 | 1012.8 |
| 20260510103310 | 48 | 36 | 2.6 | 8.7 | 0.00 | 0.01 | 0.01 | 76 | 1012.7 |
| 20260510102837 | 48 | 36 | 2.6 | 7.8 | 0.00 | 0.01 | 0.01 | 76 | 1012.7 |
| 20260510102317 | 48 | 54 | 1.7 | 6.1 | 0.00 | 0.01 | 0.01 | 77 | 1012.6 |
| 20260510101846 | 48 | 71 | 1.7 | 11.3 | 0.00 | 0.01 | 0.01 | 76 | 1012.5 |
| 20260510101325 | 48 | 53 | 4.3 | 11.3 | 0.00 | 0.01 | 0.01 | 75 | 1012.6 |
| 20260510100825 | 48 | 43 | 2.6 | 7.0 | 0.00 | 0.01 | 0.01 | 75 | 1012.3 |
| 20260510100332 | 48 | 94 | 1.7 | 7.8 | 0.00 | 0.01 | 0.01 | 75 | 1012.4 |
| 20260510095813 | 48 | 59 | 1.7 | 7.8 | 0.00 | 0.01 | 0.01 | 74 | 1012.3 |
| 20260510095342 | 48 | 70 | 2.6 | 7.8 | 0.00 | 0.01 | 0.01 | 74 | 1012.2 |
| 20260510094823 | 48 | 99 | 2.6 | 7.8 | 0.00 | 0.01 | 0.01 | 75 | 1012.3 |
| 20260510094352 | 48 | 81 | 0.9 | 7.0 | 0.00 | 0.01 | 0.01 | 76 | 1012.2 |
| 20260510093810 | 48 | 38 | 1.7 | 7.8 | 0.00 | 0.01 | 0.01 | 75 | 1012.1 |
| 20260510093313 | 48 | 77 | 2.6 | 10.4 | 0.00 | 0.01 | 0.01 | 75 | 1012.1 |
| 20260510092814 | 48 | 92 | 4.3 | 10.4 | 0.00 | 0.01 | 0.01 | 77 | 1012.0 |
| 20260510092319 | 49 | 49 | 0.9 | 5.2 | 0.00 | 0.01 | 0.01 | 79 | 1011.8 |
| 20260510091815 | 49 | 65 | 0.9 | 7.0 | 0.00 | 0.01 | 0.01 | 80 | 1011.6 |
| 20260510091311 | 49 | 76 | 1.7 | 7.0 | 0.00 | 0.01 | 0.01 | 79 | 1011.4 |
| 20260510090817 | 49 | 92 | 1.7 | 4.3 | 0.00 | 0.01 | 0.01 | 79 | 1011.4 |
| 20260510090317 | 49 | 95 | 0.9 | 4.3 | 0.00 | 0.01 | 0.01 | 80 | 1011.2 |
| 20260510085820 | 50 | 41 | 1.7 | 4.3 | 0.00 | 0.01 | 0.01 | 79 | 1011.2 |
| 20260510085320 | 50 | 64 | 0.9 | 5.2 | 0.00 | 0.01 | 0.01 | 78 | 1011.1 |
| 20260510084821 | 50 | 88 | 0.9 | 6.1 | 0.00 | 0.01 | 0.01 | 78 | 1011.2 |
| 20260510084328 | 50 | 342 | 1.7 | 6.1 | 0.00 | 0.01 | 0.01 | 77 | 1011.1 |
| 20260510083827 | 50 | 65 | 0.9 | 5.2 | 0.00 | 0.01 | 0.01 | 76 | 1010.9 |
| 20260510083327 | 50 | 78 | 0.9 | 7.8 | 0.00 | 0.01 | 0.01 | 75 | 1010.7 |
| 20260510082834 | 50 | 86 | 1.7 | 7.8 | 0.00 | 0.01 | 0.01 | 75 | 1010.5 |
| 20260510082316 | 50 | 70 | 0.9 | 4.3 | 0.00 | 0.01 | 0.01 | 76 | 1010.5 |
| 20260510081818 | 50 | 64 | 0.9 | 4.3 | 0.00 | 0.01 | 0.01 | 76 | 1010.6 |
| 20260510081321 | 50 | 62 | 0.9 | 4.3 | 0.00 | 0.01 | 0.01 | 76 | 1010.6 |
| 20260510080830 | 50 | 84 | 0.0 | 3.5 | 0.00 | 0.01 | 0.01 | 76 | 1010.6 |
| 20260510080310 | 50 | 87 | 0.9 | 3.5 | 0.00 | 0.01 | 0.01 | 77 | 1010.5 |
| 20260510075830 | 50 | 73 | 0.9 | 3.5 | 0.00 | 0.01 | 0.01 | 78 | 1010.3 |
| 20260510075310 | 50 | 77 | 0.0 | 3.5 | 0.00 | 0.01 | 0.01 | 78 | 1010.2 |
| 20260510074811 | 50 | 85 | 0.9 | 5.2 | 0.00 | 0.01 | 0.01 | 78 | 1010.2 |
| 20260510074310 | 50 | 86 | 0.9 | 5.2 | 0.00 | 0.01 | 0.01 | 78 | 1010.0 |
| 20260510073839 | 50 | 74 | 0.9 | 2.6 | 0.00 | 0.01 | 0.01 | 78 | 1010.0 |
| 20260510073319 | 50 | 71 | 0.9 | 2.6 | 0.00 | 0.01 | 0.01 | 78 | 1009.8 |
| 20260510072821 | 50 | 69 | 0.0 | 1.7 | 0.00 | 0.01 | 0.01 | 78 | 1009.7 |
| 20260510072321 | 50 | 69 | 0.0 | 1.7 | 0.00 | 0.01 | 0.01 | 77 | 1009.6 |
| 20260510071822 | 50 | 69 | 0.0 | 2.6 | 0.00 | 0.01 | 0.01 | 77 | 1009.5 |
| 20260510071329 | 51 | 69 | 0.0 | 2.6 | 0.00 | 0.01 | 0.01 | 76 | 1009.5 |
| 20260510070811 | 51 | 58 | 0.9 | 3.5 | 0.00 | 0.01 | 0.01 | 76 | 1009.5 |
| 20260510070312 | 51 | 45 | 1.7 | 3.5 | 0.00 | 0.01 | 0.01 | 76 | 1009.5 |
| 20260510065820 | 51 | 72 | 1.7 | 3.5 | 0.00 | 0.01 | 0.01 | 76 | 1009.5 |
| 20260510065320 | 51 | 105 | 0.9 | 7.0 | 0.00 | 0.01 | 0.01 | 76 | 1009.5 |
| 20260510064823 | 51 | 111 | 2.6 | 7.0 | 0.00 | 0.01 | 0.01 | 76 | 1009.4 |
| 20260510064330 | 51 | 62 | 1.7 | 7.0 | 0.00 | 0.01 | 0.01 | 76 | 1009.4 |
| 20260510063817 | 51 | 69 | 1.7 | 4.3 | 0.00 | 0.01 | 0.01 | 76 | 1009.4 |
| 20260510063319 | 51 | 61 | 1.7 | 5.2 | 0.00 | 0.01 | 0.01 | 76 | 1009.5 |
| 20260510062814 | 51 | 69 | 1.7 | 4.3 | 0.00 | 0.01 | 0.01 | 76 | 1009.3 |
| 20260510062321 | 51 | 75 | 1.7 | 6.1 | 0.00 | 0.01 | 0.01 | 75 | 1009.4 |
| 20260510061821 | 52 | 103 | 1.7 | 7.0 | 0.00 | 0.01 | 0.01 | 75 | 1009.2 |
| 20260510061327 | 52 | 57 | 4.3 | 7.0 | 0.00 | 0.01 | 0.01 | 76 | 1009.1 |
| 20260510060809 | 52 | 89 | 2.6 | 8.7 | 0.00 | 0.01 | 0.01 | 75 | 1009.0 |
| 20260510060310 | 52 | 63 | 4.3 | 9.6 | 0.00 | 0.01 | 0.01 | 75 | 1009.0 |
| 20260510055810 | 52 | 51 | 3.5 | 9.6 | 0.00 | 0.01 | 0.01 | 76 | 1008.8 |
| 20260510055318 | 52 | 105 | 3.5 | 12.2 | 0.00 | 0.01 | 0.01 | 76 | 1008.7 |
| 20260510054818 | 52 | 83 | 5.2 | 12.2 | 0.00 | 0.01 | 0.01 | 76 | 1008.8 |
| 20260510054319 | 52 | 83 | 4.3 | 7.8 | 0.00 | 0.01 | 0.01 | 77 | 1008.8 |
| 20260510053826 | 52 | 86 | 1.7 | 11.3 | 0.00 | 0.01 | 0.01 | 77 | 1008.8 |
| 20260510053327 | 52 | 82 | 4.3 | 11.3 | 0.00 | 0.01 | 0.01 | 78 | 1008.8 |
| 20260510052853 | 52 | 32 | 3.5 | 11.3 | 0.00 | 0.01 | 0.01 | 79 | 1008.7 |
| 20260510052311 | 52 | 46 | 4.3 | 10.4 | 0.00 | 0.01 | 0.01 | 79 | 1008.4 |
| 20260510051810 | 53 | 23 | 2.6 | 11.3 | 0.00 | 0.01 | 0.01 | 79 | 1008.2 |
| 20260510051314 | 53 | 342 | 2.6 | 11.3 | 0.01 | 0.01 | 0.01 | 81 | 1008.0 |
| 20260510050812 | 55 | 329 | 3.5 | 9.6 | 0.01 | 0.01 | 0.01 | 81 | 1007.8 |
| 20260510050338 | 56 | 330 | 4.3 | 7.0 | 0.01 | 0.01 | 0.01 | 86 | 1007.6 |
| 20260510045856 | 57 | 312 | 2.6 | 3.5 | 0.01 | 0.01 | 0.01 | 85 | 1007.1 |
| 20260510045337 | 57 | 320 | 1.7 | 7.0 | 0.01 | 0.01 | 0.01 | 84 | 1006.9 |
| 20260510044835 | 57 | 338 | 3.5 | 7.0 | 0.01 | 0.01 | 0.01 | 83 | 1006.8 |
| 20260510044340 | 58 | 321 | 3.5 | 7.8 | 0.01 | 0.01 | 0.01 | 82 | 1007.3 |
| 20260510043900 | 59 | 299 | 3.5 | 7.0 | 0.01 | 0.01 | 0.01 | 80 | 1007.2 |
| 20260510043344 | 59 | 284 | 2.6 | 7.8 | 0.01 | 0.01 | 0.01 | 79 | 1006.8 |
| 20260510042821 | 60 | 304 | 3.5 | 7.8 | 0.01 | 0.01 | 0.01 | 78 | 1006.4 |
| 20260510042346 | 59 | 290 | 2.6 | 7.8 | 0.01 | 0.01 | 0.01 | 78 | 1006.3 |
| 20260510041827 | 59 | 317 | 1.7 | 7.8 | 0.01 | 0.01 | 0.01 | 79 | 1006.2 |
| 20260510041347 | 58 | 215 | 0.9 | 3.5 | 0.00 | 0.00 | 0.00 | 78 | 1005.9 |
| 20260510040854 | 58 | 210 | 1.7 | 3.5 | 0.00 | 0.00 | 0.00 | 79 | 1005.7 |
| 20260510040334 | 58 | 209 | 2.6 | 3.5 | 0.00 | 0.00 | 0.00 | 80 | 1005.8 |
| 20260510035842 | 58 | 205 | 2.6 | 3.5 | 0.00 | 0.00 | 0.00 | 80 | 1005.7 |
| 20260510035345 | 58 | 194 | 1.7 | 3.5 | 0.00 | 0.00 | 0.00 | 80 | 1005.7 |
| 20260510034827 | 58 | 190 | 1.7 | 3.5 | 0.00 | 0.00 | 0.00 | 80 | 1005.6 |
| 20260510034357 | 58 | 180 | 0.9 | 2.6 | 0.00 | 0.00 | 0.00 | 80 | 1005.5 |
| 20260510033844 | 58 | 182 | 0.9 | 3.5 | 0.00 | 0.00 | 0.00 | 80 | 1005.4 |
| 20260510033327 | 58 | 172 | 1.7 | 3.5 | 0.00 | 0.00 | 0.00 | 79 | 1005.4 |
| 20260510032829 | 58 | 184 | 1.7 | 4.3 | 0.00 | 0.00 | 0.00 | 79 | 1005.5 |
| 20260510032331 | 58 | 175 | 1.7 | 3.5 | 0.00 | 0.00 | 0.00 | 79 | 1005.5 |
| 20260510031840 | 58 | 180 | 1.7 | 6.1 | 0.00 | 0.00 | 0.00 | 79 | 1005.5 |
| 20260510031344 | 58 | 195 | 2.6 | 6.1 | 0.00 | 0.00 | 0.00 | 80 | 1005.5 |
| 20260510030826 | 58 | 202 | 2.6 | 7.0 | 0.00 | 0.00 | 0.00 | 80 | 1005.5 |
| 20260510030335 | 57 | 204 | 3.5 | 5.2 | 0.00 | 0.00 | 0.00 | 81 | 1005.6 |
| 20260510025838 | 57 | 193 | 2.6 | 6.1 | 0.00 | 0.00 | 0.00 | 82 | 1005.7 |
| 20260510025320 | 57 | 198 | 2.6 | 6.1 | 0.00 | 0.00 | 0.00 | 82 | 1005.5 |
| 20260510024823 | 57 | 184 | 2.6 | 3.5 | 0.00 | 0.00 | 0.00 | 82 | 1005.5 |
| 20260510024331 | 57 | 181 | 1.7 | 3.5 | 0.00 | 0.00 | 0.00 | 82 | 1005.4 |
| 20260510023901 | 57 | 182 | 1.7 | 3.5 | 0.00 | 0.00 | 0.00 | 82 | 1005.3 |
| 20260510023343 | 57 | 175 | 1.7 | 4.3 | 0.00 | 0.00 | 0.00 | 82 | 1005.3 |
| 20260510022825 | 57 | 177 | 1.7 | 4.3 | 0.00 | 0.00 | 0.00 | 82 | 1005.4 |
| 20260510022334 | 57 | 194 | 1.7 | 4.3 | 0.00 | 0.00 | 0.00 | 82 | 1005.4 |
| 20260510021837 | 57 | 219 | 2.6 | 5.2 | 0.00 | 0.00 | 0.00 | 82 | 1005.6 |
| 20260510021319 | 57 | 200 | 1.7 | 5.2 | 0.00 | 0.00 | 0.00 | 82 | 1005.7 |
| 20260510020822 | 57 | 208 | 3.5 | 4.3 | 0.00 | 0.00 | 0.00 | 82 | 1005.7 |
| 20260510020351 | 57 | 179 | 0.9 | 2.6 | 0.00 | 0.00 | 0.00 | 81 | 1005.5 |
| 20260510015833 | 57 | 180 | 0.9 | 1.7 | 0.00 | 0.00 | 0.00 | 81 | 1005.2 |
| 20260510015343 | 58 | 180 | 0.0 | 3.5 | 0.00 | 0.00 | 0.00 | 80 | 1005.1 |
| 20260510014852 | 58 | 181 | 0.9 | 3.5 | 0.00 | 0.00 | 0.00 | 79 | 1005.1 |
| 20260510014334 | 58 | 175 | 1.7 | 2.6 | 0.00 | 0.00 | 0.00 | 79 | 1005.0 |
| 20260510013836 | 58 | 169 | 1.7 | 2.6 | 0.00 | 0.00 | 0.00 | 78 | 1005.0 |
| 20260510013343 | 59 | 171 | 0.9 | 3.5 | 0.00 | 0.00 | 0.00 | 78 | 1004.9 |
| 20260510012847 | 59 | 192 | 1.7 | 3.5 | 0.00 | 0.00 | 0.00 | 77 | 1004.9 |
| 20260510012328 | 59 | 196 | 1.7 | 4.3 | 0.00 | 0.00 | 0.00 | 77 | 1004.8 |
| 20260510011837 | 59 | 207 | 2.6 | 4.3 | 0.00 | 0.00 | 0.00 | 77 | 1004.8 |
| 20260510011339 | 59 | 207 | 1.7 | 4.3 | 0.00 | 0.00 | 0.00 | 77 | 1004.8 |
| 20260510010821 | 59 | 212 | 2.6 | 4.3 | 0.00 | 0.00 | 0.00 | 77 | 1004.7 |
| 20260510010324 | 59 | 211 | 2.6 | 4.3 | 0.00 | 0.00 | 0.00 | 77 | 1004.7 |
| 20260510005833 | 59 | 212 | 2.6 | 4.3 | 0.00 | 0.00 | 0.00 | 77 | 1004.8 |
| 20260510005336 | 59 | 223 | 2.6 | 7.8 | 0.00 | 0.00 | 0.00 | 77 | 1004.7 |
| 20260510004845 | 59 | 219 | 2.6 | 8.7 | 0.00 | 0.00 | 0.00 | 77 | 1004.5 |
| 20260510004349 | 59 | 230 | 3.5 | 8.7 | 0.00 | 0.00 | 0.00 | 77 | 1004.6 |
| 20260510003830 | 59 | 207 | 2.6 | 5.2 | 0.00 | 0.00 | 0.00 | 79 | 1004.6 |
| 20260510003339 | 59 | 232 | 1.7 | 4.3 | 0.00 | 0.00 | 0.00 | 80 | 1004.8 |
| 20260510002843 | 59 | 214 | 2.6 | 6.1 | 0.00 | 0.00 | 0.00 | 80 | 1004.6 |
| 20260510002325 | 59 | 206 | 1.7 | 6.1 | 0.00 | 0.00 | 0.00 | 81 | 1004.6 |
| 20260510001834 | 58 | 221 | 1.7 | 6.1 | 0.00 | 0.00 | 0.00 | 81 | 1004.7 |
| 20260510001337 | 58 | 205 | 2.6 | 6.1 | 0.00 | 0.00 | 0.00 | 82 | 1004.6 |
| 20260510000819 | 58 | 214 | 2.6 | 7.0 | 0.00 | 0.00 | 0.00 | 82 | 1004.7 |
| 20260510000322 | 58 | 229 | 3.5 | 7.0 | 0.00 | 0.00 | 0.00 | 83 | 1004.7 |
| 20260509235830 | 58 | 237 | 2.6 | 7.8 | 0.00 | 0.00 | 0.00 | 83 | 1004.7 |
| 20260509235333 | 58 | 230 | 4.3 | 7.8 | 0.00 | 0.00 | 0.00 | 84 | 1004.6 |
| 20260509234842 | 58 | 192 | 3.5 | 6.1 | 0.00 | 0.00 | 0.00 | 85 | 1004.6 |
| 20260509234346 | 58 | 234 | 3.5 | 6.1 | 0.00 | 0.00 | 0.00 | 87 | 1004.4 |
| 20260509233828 | 57 | 205 | 2.6 | 6.1 | 0.00 | 0.00 | 0.00 | 88 | 1004.4 |
| 20260509233355 | 57 | 235 | 3.5 | 6.1 | 0.00 | 0.00 | 0.00 | 90 | 1004.4 |
| 20260509232904 | 57 | 211 | 2.6 | 6.1 | 0.00 | 0.00 | 0.00 | 90 | 1004.4 |
| 20260509232325 | 57 | 239 | 0.9 | 6.1 | 0.00 | 0.00 | 0.00 | 90 | 1004.4 |
| 20260509231828 | 57 | 213 | 2.6 | 6.1 | 0.00 | 0.00 | 0.00 | 90 | 1004.3 |
| 20260509231330 | 56 | 249 | 2.6 | 5.2 | 0.00 | 0.00 | 0.00 | 90 | 1004.4 |
| 20260509230839 | 56 | 240 | 1.7 | 7.0 | 0.00 | 0.00 | 0.00 | 90 | 1004.3 |
| 20260509230321 | 56 | 239 | 3.5 | 6.1 | 0.00 | 0.00 | 0.00 | 90 | 1004.4 |
| 20260509225850 | 56 | 231 | 2.6 | 5.2 | 0.00 | 0.00 | 0.00 | 90 | 1004.5 |
| 20260509225332 | 56 | 244 | 2.6 | 7.8 | 0.00 | 0.00 | 0.00 | 90 | 1004.4 |
| 20260509224835 | 56 | 227 | 2.6 | 7.8 | 0.00 | 0.00 | 0.00 | 90 | 1004.4 |
| 20260509224344 | 56 | 217 | 2.6 | 5.2 | 0.00 | 0.00 | 0.00 | 89 | 1004.3 |
| 20260509223827 | 56 | 303 | 1.7 | 7.0 | 0.00 | 0.00 | 0.00 | 90 | 1004.4 |
| 20260509223330 | 56 | 282 | 4.3 | 10.4 | 0.00 | 0.00 | 0.00 | 89 | 1004.5 |
| 20260509222833 | 56 | 287 | 3.5 | 11.3 | 0.00 | 0.00 | 0.00 | 86 | 1004.8 |
| 20260509222341 | 57 | 313 | 5.2 | 19.1 | 0.00 | 0.00 | 0.00 | 82 | 1004.7 |
| 20260509221845 | 60 | 309 | 7.0 | 19.1 | 0.00 | 0.00 | 0.00 | 74 | 1003.9 |
| 20260509221324 | 66 | 338 | 7.8 | 17.4 | 0.00 | 0.00 | 0.00 | 62 | 1003.3 |
| 20260509220853 | 69 | 267 | 7.8 | 13.0 | 0.00 | 0.00 | 0.00 | 57 | 1002.5 |
| 20260509220341 | 69 | 200 | 5.2 | 11.3 | 0.00 | 0.00 | 0.00 | 55 | 1001.7 |
| 20260509215824 | 69 | 206 | 4.3 | 10.4 | 0.00 | 0.00 | 0.00 | 55 | 1001.8 |
| 20260509215347 | 69 | 204 | 5.2 | 13.0 | 0.00 | 0.00 | 0.00 | 55 | 1001.8 |
| 20260509214834 | 70 | 192 | 5.2 | 13.0 | 0.00 | 0.00 | 0.00 | 55 | 1001.8 |
| 20260509214336 | 70 | 200 | 6.1 | 12.2 | 0.00 | 0.00 | 0.00 | 54 | 1001.7 |
| 20260509213819 | 70 | 192 | 7.0 | 12.2 | 0.00 | 0.00 | 0.00 | 53 | 1001.8 |
| 20260509213349 | 71 | 192 | 6.1 | 11.3 | 0.00 | 0.00 | 0.00 | 53 | 1001.7 |
| 20260509212831 | 71 | 241 | 5.2 | 14.8 | 0.00 | 0.00 | 0.00 | 53 | 1001.6 |
| 20260509212340 | 71 | 251 | 7.0 | 14.8 | 0.00 | 0.00 | 0.00 | 52 | 1001.6 |
| 20260509211821 | 71 | 257 | 6.1 | 13.9 | 0.00 | 0.00 | 0.00 | 53 | 1001.6 |
| 20260509211323 | 71 | 209 | 6.1 | 13.9 | 0.00 | 0.00 | 0.00 | 53 | 1001.6 |
| 20260509210826 | 71 | 236 | 3.5 | 12.2 | 0.00 | 0.00 | 0.00 | 54 | 1001.5 |
| 20260509210334 | 71 | 253 | 6.1 | 12.2 | 0.00 | 0.00 | 0.00 | 54 | 1001.5 |
| 20260509205833 | 71 | 213 | 5.2 | 14.8 | 0.00 | 0.00 | 0.00 | 54 | 1001.6 |
| 20260509205331 | 70 | 223 | 6.1 | 12.2 | 0.00 | 0.00 | 0.00 | 53 | 1001.8 |
| 20260509204858 | 70 | 222 | 7.0 | 13.9 | 0.00 | 0.00 | 0.00 | 55 | 1001.9 |
| 20260509204344 | 70 | 217 | 6.1 | 14.8 | 0.00 | 0.00 | 0.00 | 57 | 1001.9 |
| 20260509203824 | 70 | 191 | 5.2 | 14.8 | 0.00 | 0.00 | 0.00 | 54 | 1002.0 |
| 20260509203324 | 70 | 231 | 5.2 | 14.8 | 0.00 | 0.00 | 0.00 | 57 | 1002.1 |
| 20260509202824 | 70 | 268 | 8.7 | 16.5 | 0.00 | 0.00 | 0.00 | 55 | 1002.2 |